Weather History for El Centro, CA

Change the Weather History Date:

Tuesday, February 19, 2013

  Actual Average Record
Temperature  
Mean Temperature 56 °F -  
Max Temperature 64 °F 69 °F 84 °F (2014)
Min Temperature 48 °F 48 °F 41 °F (2009)
Degree Days  
Heating Degree Days 9    
Growing Degree Days 6 (Base 50)    
Moisture  
Dew Point 35 °F    
Average Humidity 45    
Maximum Humidity 56    
Minimum Humidity 34    
Precipitation  
Precipitation 0.00 in - - ()
Sea Level Pressure  
Sea Level Pressure 29.84 in    
Wind  
Wind Speed 17 mph (WSW)    
Max Wind Speed 32 mph    
Max Gust Speed 38 mph    
Visibility 10 miles    
Events      
Averages and records for this station are not official NWS values.
T = Trace of Precipitation, MM = Missing Value Source: NWS Daily Summary

Daily Weather History Graph

Daily Weather History Graph

Search for Another Location

Airport:

Trip Planner

Search our weather history database for the weather conditions in past years. The results will help you decide how hot, cold, wet, or windy it might be!

Date:

Astronomy

Feb. 19, 2013 Rise Set
Actual Time 6:21 AM PST 5:31 PM PST
Civil Twilight 5:56 AM PST 5:56 PM PST
Nautical Twilight 5:27 AM PST 6:25 PM PST
Astronomical Twilight 4:58 AM PST 6:54 PM PST
Moon 12:16 PM PST (2/19) 1:47 AM PST (2/19)
Length of Visible Light 12h 00m
Length of Day
11h 10m
Waxing Gibbous, 68% of the Moon is Illuminated
Feb 19
Waxing Gibbous
Feb 25
Full
Mar 4
Last Quarter
Mar 11
New
Mar 19
First Quarter

Hourly Weather History & Observations

Time (PST) Temp. Dew Point Humidity Pressure Visibility Wind Dir Wind Speed Gust Speed Precip Events Conditions
12:56 AM 57.0 °F 33.1 °F 40% 29.89 in 10.0 mi West 12.7 mph - N/A   Clear
1:56 AM 55.9 °F 34.0 °F 44% 29.88 in 10.0 mi WSW 15.0 mph - N/A   Clear
2:56 AM 52.0 °F 34.0 °F 50% 29.87 in 10.0 mi SW 9.2 mph - N/A   Clear
3:56 AM 50.0 °F 34.0 °F 54% 29.87 in 10.0 mi SW 9.2 mph - N/A   Clear
4:56 AM 52.0 °F 35.1 °F 53% 29.88 in 10.0 mi WSW 12.7 mph - N/A   Clear
5:56 AM 48.9 °F 34.0 °F 56% 29.88 in 10.0 mi West 9.2 mph - N/A   Clear
6:56 AM 53.1 °F 34.0 °F 48% 29.91 in 10.0 mi West 17.3 mph - N/A   Clear
7:56 AM 57.0 °F 35.1 °F 44% 29.91 in 10.0 mi West 18.4 mph - N/A   Clear
8:56 AM 59.0 °F 35.1 °F 41% 29.90 in 10.0 mi West 21.9 mph - N/A   Scattered Clouds
10:56 AM 63.0 °F 35.1 °F 35% 29.88 in 10.0 mi West 21.9 mph 32.2 mph N/A   Mostly Cloudy
11:56 AM 63.0 °F 34.0 °F 34% 29.86 in 10.0 mi West 28.8 mph 33.4 mph N/A   Mostly Cloudy
12:56 PM 62.1 °F 35.1 °F 37% 29.84 in 10.0 mi WSW 28.8 mph 36.8 mph N/A   Mostly Cloudy
1:56 PM 64.0 °F 35.1 °F 34% 29.83 in 10.0 mi WSW 32.2 mph 38.0 mph N/A   Scattered Clouds
2:56 PM 63.0 °F 36.0 °F 37% 29.80 in 10.0 mi West 25.3 mph 33.4 mph N/A   Scattered Clouds
4:56 PM 60.1 °F 37.9 °F 44% 29.78 in 10.0 mi West 23.0 mph 29.9 mph N/A   Mostly Cloudy
5:56 PM 57.0 °F 37.0 °F 47% 29.79 in 10.0 mi West 23.0 mph - N/A   Mostly Cloudy
6:56 PM 55.9 °F 37.0 °F 49% 29.81 in 10.0 mi SW 17.3 mph 25.3 mph N/A   Mostly Cloudy
7:56 PM 55.0 °F 34.0 °F 45% 29.78 in 10.0 mi WSW 17.3 mph 24.2 mph N/A   Mostly Cloudy
8:56 PM 55.0 °F 36.0 °F 49% 29.77 in 10.0 mi WSW 28.8 mph 38.0 mph N/A   Mostly Cloudy
9:56 PM 54.0 °F 35.1 °F 49% 29.80 in 10.0 mi SW 27.6 mph 35.7 mph N/A   Mostly Cloudy
10:56 PM 53.1 °F 33.1 °F 47% 29.76 in 10.0 mi WSW 17.3 mph 24.2 mph N/A   Mostly Cloudy
11:56 PM 54.0 °F 33.1 °F 45% 29.75 in 10.0 mi SW 12.7 mph - N/A   Clear